Location: G�rlitz
(51.1670°N, 15.0000°E)
Time: 06:35:41
(UTC+02:00)

AO-73 - Visible Passes

Search period start: 21 April 2026 00:00
Search period end: 01 May 2026 00:00
Orbit: 514 x 567 km, 97.8° (Epoch: 20 April)

Date Brightness Start Highest point End Pass type
(mag) Time Alt. Az. Time Alt. Az. Time Alt. Az.
21 Apr ? 04:53:15 10° NNE 04:57:08 70° ESE 05:01:03 10° S visible
22 Apr ? 04:45:58 10° NNE 04:49:49 58° E 04:53:42 10° S visible
23 Apr ? 04:38:41 10° NNE 04:42:29 48° E 04:46:18 10° S visible
24 Apr ? 04:31:26 10° NNE 04:35:08 40° E 04:38:52 10° S visible
25 Apr ? 04:24:09 10° NNE 04:27:45 34° E 04:31:23 10° SSE visible
26 Apr ? 04:16:54 10° NE 04:20:22 29° E 04:23:50 10° SSE visible
27 Apr ? 04:09:40 10° NE 04:12:57 24° E 04:16:14 10° SSE visible
28 Apr ? 04:02:28 10° NE 04:05:30 21° E 04:08:33 10° SE visible
29 Apr ? 03:55:18 10° NE 03:58:03 18° E 04:00:49 10° SE visible
30 Apr ? 03:48:11 10° NE 03:50:34 15° E 03:52:57 10° SE visible
